Pierre, SD

11:14 PM CDT on July 23, 2017 (GMT -0500)
Pierre Regional

Weather History for KPIR - March, 2013

Change the Weather History Date:

Monday, March 18, 2013

  Actual Average Record
Temperature  
Mean Temperature 21 °F 35 °F  
Max Temperature 32 °F 46 °F 88 °F (2012)
Min Temperature 10 °F 24 °F -5 °F (1989)
Degree Days  
Heating Degree Days 44 30  
Month to date heating degree days 635 596  
Since 1 July heating degree days 6059 6094  
Cooling Degree Days 0 0  
Month to date cooling degree days 0 0  
Year to date cooling degree days 0 0  
Moisture  
Dew Point 4 °F    
Average Humidity 54    
Maximum Humidity 76    
Minimum Humidity 31    
Precipitation  
Precipitation T in 0.05 in 0.51 in (1933)
Month to date precipitation T 0.63  
Year to date precipitation 1.66 1.64  
Snow  
Snow T in 0.10 in 5.10 in (1950)
Month to date snowfall 0.2 4.0  
Since 1 July snowfall 31.9 25.8  
Snow Depth 0.00 in    
Sea Level Pressure  
Sea Level Pressure 29.95 in    
Wind  
Wind Speed 21 mph (NW)    
Max Wind Speed 44 mph    
Max Gust Speed 54 mph    
Visibility 10 miles    
Events Snow    
T = Trace of Precipitation, MM = Missing Value Source: NWS Daily Summary

Daily Weather History Graph

Daily Weather History Graph

Search for Another Location

Airport or City:

Trip Planner

Search our weather history database for the weather conditions in past years. The results will help you decide how hot, cold, wet, or windy it might be!

Date:

Astronomy

Mar. 18, 2013 Rise Set
Actual Time 7:47 AM CDT 7:51 PM CDT
Civil Twilight 7:18 AM CDT 8:20 PM CDT
Nautical Twilight 6:44 AM CDT 8:54 PM CDT
Astronomical Twilight 6:10 AM CDT 9:29 PM CDT
Moon 11:35 AM CDT (3/18) 2:05 AM CDT (3/18)
Length of Visible Light 13h 01m
Length of Day
12h 04m
Waxing Crescent, 41% of the Moon is Illuminated
Mar 18
Waxing Crescent
Mar 19
First Quarter
Mar 27
Full
Apr 2
Last Quarter
Apr 10
New

Hourly Weather History & Observations

Time (CDT) Temp. Windchill Dew Point Humidity Pressure Visibility Wind Dir Wind Speed Gust Speed Precip Events Conditions
12:53 AM 25.0 °F 7.1 °F 14.0 °F 63% 29.70 in 10.0 mi WNW 34.5 mph 47.2 mph N/A   Partly Cloudy
1:53 AM 21.0 °F 2.2 °F 10.0 °F 63% 29.76 in 10.0 mi WNW 32.2 mph 50.6 mph N/A   Overcast
2:53 AM 19.0 °F -0.3 °F 8.1 °F 62% 29.81 in 10.0 mi WNW 31.1 mph 40.3 mph N/A   Scattered Clouds
3:53 AM 17.1 °F -1.7 °F 6.1 °F 62% 29.84 in 10.0 mi WNW 26.5 mph 47.2 mph N/A   Mostly Cloudy
4:53 AM 15.1 °F -4.7 °F 3.9 °F 61% 29.86 in 10.0 mi WNW 27.6 mph 40.3 mph N/A   Clear
5:53 AM 14.0 °F -4.7 °F 3.9 °F 64% 29.88 in 10.0 mi NW 23.0 mph 33.4 mph N/A   Partly Cloudy
6:44 AM 12.2 °F -8.9 °F 1.4 °F 62% 29.84 in 10.0 mi NW 28.8 mph 38.0 mph N/A   Mostly Cloudy
6:53 AM 12.0 °F -10.4 °F 1.0 °F 61% 29.92 in 10.0 mi NW 33.4 mph 43.7 mph N/A   Overcast
7:27 AM 12.2 °F -8.6 °F -0.4 °F 57% 29.87 in 10.0 mi NW 27.6 mph 38.0 mph N/A   Mostly Cloudy
7:43 AM 10.4 °F -11.0 °F -0.4 °F 62% 29.88 in 10.0 mi NW 27.6 mph 36.8 mph N/A   Overcast
7:53 AM 10.0 °F -11.1 °F -2.0 °F 58% 29.95 in 10.0 mi NW 26.5 mph 36.8 mph N/A   Mostly Cloudy
8:53 AM 12.0 °F -8.8 °F 1.0 °F 61% 29.97 in 9.0 mi NW 27.6 mph 41.4 mph 0.00 in Snow Light Snow
9:26 AM 12.2 °F -9.6 °F 1.4 °F 62% 29.91 in 9.0 mi NW 31.1 mph 41.4 mph 0.00 in Snow Light Snow
9:40 AM 14.0 °F -6.8 °F 3.2 °F 62% 29.92 in 9.0 mi NW 29.9 mph 38.0 mph 0.00 in   Overcast
9:53 AM 14.0 °F -6.8 °F 1.9 °F 59% 30.00 in 10.0 mi NW 29.9 mph 36.8 mph 0.00 in   Overcast
10:53 AM 18.0 °F -1.4 °F 1.9 °F 50% 30.01 in 10.0 mi NW 29.9 mph 39.1 mph N/A   Clear
11:53 AM 21.0 °F 4.3 °F 3.0 °F 46% 30.00 in 10.0 mi NW 24.2 mph 38.0 mph N/A   Clear
12:53 PM 24.1 °F 7.4 °F 3.9 °F 42% 30.00 in 10.0 mi WNW 27.6 mph 38.0 mph N/A   Clear
1:53 PM 27.0 °F 11.3 °F 5.0 °F 39% 29.99 in 10.0 mi NW 27.6 mph 39.1 mph N/A   Clear
2:53 PM 28.9 °F 14.3 °F 5.0 °F 36% 30.00 in 10.0 mi NW 26.5 mph 39.1 mph N/A   Clear
3:53 PM 30.9 °F 17.2 °F 5.0 °F 33% 29.99 in 10.0 mi NW 25.3 mph 35.7 mph N/A   Clear
4:53 PM 30.9 °F 18.4 °F 3.9 °F 32% 30.00 in 10.0 mi NW 20.7 mph 32.2 mph N/A   Clear
5:53 PM 30.9 °F 19.1 °F 3.9 °F 32% 30.01 in 10.0 mi NNW 18.4 mph 27.6 mph N/A   Clear
6:53 PM 28.0 °F 17.0 °F 3.9 °F 36% 30.03 in 10.0 mi NNW 13.8 mph - N/A   Clear
7:53 PM 24.1 °F 13.7 °F 5.0 °F 44% 30.04 in 10.0 mi North 10.4 mph - N/A   Clear
8:53 PM 21.0 °F - 5.0 °F 50% 30.06 in 10.0 mi Calm Calm - N/A   Clear
9:53 PM 17.1 °F 8.7 °F 6.1 °F 62% 30.07 in 10.0 mi NNE 5.8 mph - N/A   Clear
10:53 PM 12.9 °F 1.6 °F 6.1 °F 74% 30.07 in 10.0 mi NNE 8.1 mph - N/A   Clear
11:53 PM 15.1 °F - 6.1 °F 68% 30.08 in 10.0 mi Calm Calm - N/A   Partly Cloudy